Regional Weather Roundup
Issued by NWS

Home | Current Version | Previous Version | Graphics & Text | Print | Product List | Glossary Off
Versions: 1 2 3 4 5 6 7 8 9 10 11 12 13 14 15 16 17 18 19 20 21 22 23 24 25 26 27 28 29 30 31 32 33 34 35 36 37 38 39 40 41 42 43 44 45 46 47 48 49 50

000
ASUS43 KDTX 020310
RWRMI
MICHIGAN HOURLY REGIONAL WEATHER ROUNDUP
NATIONAL WEATHER SERVICE DETROIT/PONTIAC MI
1100 PM EDT SAT AUG 01 2015

NOTE: "FAIR" INDICATES FEW OR NO CLOUDS BELOW 12,000 FEET WITH NO
SIGNIFICANT WEATHER AND/OR OBSTRUCTION TO VISIBILITY.

MIZ047>049-052>055-059>063-066>070-074>076-081>083-020400-
SOUTHEAST LOWER MICHIGAN

CITY           SKY/WX    TMP DP  RH WIND       PRES   REMARKS
ADRIAN         MOCLDY    69  57  65 NW3       29.93S
ALMA           CLEAR     60  55  83 CALM      29.89S
ANN ARBOR      CLEAR     63  56  78 W3        29.91S
BAD AXE        CLEAR     62  56  82 CALM      29.86R
DETROIT CITY   CLEAR     74  50  42 W6        29.90R
DETROIT        CLEAR     71  53  52 SW6       29.91R
FLINT          CLEAR     66  51  58 SW5       29.89R
GROSSE ILE     CLEAR     72  55  56 CALM      29.90R
HILLSDALE      PTCLDY    67  60  76 CALM      29.94S
HOWELL         CLEAR     67  51  56 SW5       29.92R

CITY           SKY/WX    TMP DP  RH WIND       PRES   REMARKS
JACKSON        PTCLDY    67  57  70 SW5       29.93R
LAMBERTVILLE   MOCLDY    73  56  54 CALM      29.93S
LANSING        CLEAR     67  54  63 SW6       29.91R
LAPEER         NOT AVBL
MASON          CLEAR     62  53  71 CALM      29.92R
MONROE         CLEAR     66  58  74 CALM      29.91R
MT. CLEMENS    CLEAR     71  48  44 SW7       29.87R
PONTIAC        CLEAR     69  50  50 W7        29.90R
PORT HOPE        N/A     68  58  70 SW6       29.83R
PORT HURON     CLEAR     64  52  63 CALM      29.88R
TRI CITIES     CLEAR     68  52  56 SW6       29.88R
YPSILANTI      CLEAR     68  54  60 W7        29.92R
$$
MIZ043>046-050>051-056>058-064>065-071>073-077>080-020400-
SOUTHWEST LOWER MICHIGAN

CITY           SKY/WX    TMP DP  RH WIND       PRES   REMARKS
BATTLE CREEK   PTCLDY    69  60  73 CALM      29.92S
BENTON HARBOR  MOCLDY    67  62  84 CALM      29.90R
BIG RAPIDS     CLEAR     62  54  76 CALM      29.88S
COLDWATER      MOCLDY    66  60  82 CALM      29.93S
HOLLAND        CLEAR     67  58  72 CALM      29.90S
GRAND RAPIDS   PTCLDY    68  54  60 SW6       29.90S
KALAMAZOO      MOCLDY    68  59  73 S3        29.92R
MARSHALL       MOCLDY    67  58  73 CALM      29.92S
MUSKEGON       PTCLDY    69  58  67 S7        29.88S
$$
MIZ016>042-020400-
NORTHERN LOWER MICHIGAN

CITY           SKY/WX    TMP DP  RH WIND       PRES   REMARKS
ALPENA         CLEAR     59  55  87 S3        29.83S
BEAVER ISLAND  CLEAR     67  60  77 SW9G16    29.79F
BELLAIRE       CLEAR     62  55  78 CALM      29.82S
CADILLAC       CLEAR     63  55  74 SW5       29.87S
CHARLEVOIX     CLEAR     69  55  62 SW8       29.83S
FRANKFORT      CLEAR     69  59  69 CALM      29.83S
GAYLORD        CLEAR     63  53  70 SW3       29.84F
GRAYLING       CLEAR     57  51  81 CALM      29.86S
HARBOR SPRINGS PTCLDY    67  56  67 CALM      29.80F
HOUGHTON LAKE  CLEAR     69  55  60 W7        29.86S
MANISTEE       CLEAR     63  54  72 CALM      29.85S
OSCODA         CLEAR     63  56  78 CALM      29.83S
PELLSTON       CLEAR     60  55  83 CALM      29.80F
TRAVERSE CITY  CLEAR     70  53  54 SW5       29.81S
$$
MIZ007>008-015-020400-
EASTERN UPPER MICHIGAN

CITY           SKY/WX    TMP DP  RH WIND       PRES   REMARKS
KINROSS        PTCLDY    64  57  77 CALM      29.79F
MACKINAC ISLAN   N/A     67  58  73 SW7       29.79F
NEWBERRY       CLEAR     58  56  93 SW5       29.78F
S. S. MARIE    PTCLDY    61  56  83 CALM      29.77F
$$
MIZ004>006-011>014-085-020400-
CENTRAL UPPER MICHIGAN

CITY           SKY/WX    TMP DP  RH WIND       PRES   REMARKS
MANISTIQUE     CLEAR     57  55  94 CALM      29.78S
ESCANABA       CLEAR     63  52  67 CALM      29.78S
MENOMINEE      CLEAR     70  52  52 W3        29.80S
SAWYER-GWINN   CLEAR     66  48  52 S5        29.79S
$$
MIZ001>003-009>011-084-020400-
WESTERN UPPER MICHIGAN

CITY           SKY/WX    TMP DP  RH WIND       PRES   REMARKS
IRON MOUNTAIN  CLEAR     64  54  69 CALM      29.79S
HOUGHTON       PTCLDY    69  49  48 SW7       29.73S
COPPER HARBOR    N/A     71  49  45 VRB3      29.69F
IRONWOOD       PTCLDY    68  55  64 SW8       29.74F
$$

ABBREVIATIONS USED IN REMARKS
   TC - TEMPERATURE IN CELSIUS
  WCI - WIND CHILL INDEX
   HX - HEAT INDEX
  VSB - VISIBILITY




USA.gov is the U.S. government's official web portal to all federal, state and local government web resources and services.